Location: Maynard F. Jordan Observatory
(44.9000°N, 68.6700°W)
Time: 11:52:31
(UTC-05:00)

Cosmos 2297 Rocket - Visible Passes

Search period start: 27 January 2015 00:00
Search period end: 06 February 2015 00:00
Orbit: 839 x 845 km, 71.0° (Epoch: 25 January)

Date Brightness Start Highest point End Pass type
(mag) Time Alt. Az. Time Alt. Az. Time Alt. Az.
27 Jan 2.7 18:34:28 10° NNW 18:40:03 59° WSW 18:45:34 10° S visible
28 Jan 2.7 18:19:25 10° NNW 18:25:01 62° WSW 18:30:34 10° S visible
29 Jan 2.6 18:04:22 10° NNW 18:10:00 65° WSW 18:15:34 10° SSE visible
30 Jan 2.6 17:49:20 10° NNW 17:54:58 69° WSW 18:00:34 10° SSE visible
31 Jan 2.5 17:34:17 10° NNW 17:39:56 72° WSW 17:45:33 10° SSE visible
01 Feb 2.5 17:19:14 10° NNW 17:24:54 76° WSW 17:30:32 10° SSE visible
01 Feb 5.6 19:06:56 10° W 19:08:07 10° W 19:08:54 10° WSW visible
02 Feb 5.6 18:51:21 10° WNW 18:53:07 11° W 18:54:31 10° WSW visible
03 Feb 5.1 06:14:49 10° SSE 06:19:06 23° ESE 06:23:33 10° NE visible
03 Feb 5.6 18:35:56 10° WNW 18:38:07 12° W 18:39:56 10° WSW visible
04 Feb 5.1 05:59:56 10° SSE 06:04:06 22° ESE 06:08:26 10° NE visible
04 Feb 5.6 18:20:36 10° WNW 18:23:07 13° W 18:25:18 10° WSW visible
05 Feb 5.1 05:45:04 10° SSE 05:49:06 21° ESE 05:53:19 10° NE visible
05 Feb 5.6 18:05:20 10° WNW 18:08:07 13° W 18:10:35 10° SW visible
